CST,Max TemperatureF,Mean TemperatureF,Min TemperatureF,Max Dew PointF,MeanDew PointF,Min DewpointF,Max Humidity, Mean Humidity, Min Humidity, Max Sea Level PressureIn, Mean Sea Level PressureIn, Min Sea Level PressureIn, Max VisibilityMiles, Mean VisibilityMiles, Min VisibilityMiles, Max Wind SpeedMPH, Mean Wind SpeedMPH, Max Gust SpeedMPH,PrecipitationIn, CloudCover, Events, WindDirDegrees
2012-2-1,63,42,20,27,19,16,81,50,19,30.19,30.14,30.09,10,10,10,17,4,22,0.00,1,,266
2012-2-2,55,37,19,29,23,15,84,60,35,30.26,30.22,30.17,10,10,10,12,4,15,0.00,1,,80
2012-2-3,49,41,33,39,36,28,100,73,46,30.26,30.19,30.15,10,5,1,33,17,45,0.49,8,Rain-Snow,67
2012-2-4,33,31,29,32,30,26,100,93,85,30.44,30.28,30.16,10,2,0,32,20,39,1.05,8,Fog-Snow,3
2012-2-5,34,22,10,27,17,9,100,86,72,30.49,30.40,30.32,10,5,0,10,4,13,0.00,1,Fog,284
2012-2-6,36,22,7,27,14,5,100,85,70,30.37,30.28,30.21,9,4,0,9,4,12,0.00,1,Fog,192
2012-2-7,33,29,25,29,24,19,92,87,81,30.57,30.44,30.28,10,7,2,24,17,29,T,8,Snow,3
2012-2-8,28,25,22,20,19,17,84,79,74,30.57,30.49,30.38,10,10,10,12,4,14,0.00,8,,288
2012-2-9,35,29,22,28,25,21,100,88,75,30.37,30.20,30.07,10,7,5,18,7,23,0.00,5,,212
2012-2-10,30,17,4,22,5,-5,81,65,49,30.69,30.39,30.12,10,10,10,30,19,35,0.00,1,,347
2012-2-11,17,7,-3,0,-5,-9,79,61,43,30.87,30.78,30.71,10,10,10,14,6,16,0.00,0,,310
2012-2-12,30,13,-5,18,4,-8,87,67,46,30.72,30.43,30.07,10,10,5,22,8,26,0.01,3,Snow,178
2012-2-13,32,27,21,29,25,20,100,93,85,30.06,29.85,29.73,10,5,0,25,8,31,0.11,8,Fog-Snow,194
2012-2-14,40,25,9,31,20,9,100,85,70,29.90,29.85,29.79,10,4,0,12,4,15,0.00,2,Fog,215
2012-2-15,41,29,16,34,25,15,100,88,75,30.20,29.93,29.84,10,4,0,17,5,18,0.01,4,Fog-Rain,322
2012-2-16,39,29,19,28,24,18,92,73,54,30.33,30.24,30.13,10,10,10,13,5,15,0.00,2,,223
2012-2-17,41,32,23,29,25,18,85,70,55,30.29,30.17,30.05,10,10,10,15,7,18,0.00,0,,348
2012-2-18,39,27,15,22,18,13,92,68,44,30.34,30.26,30.16,10,10,9,9,3,14,0.00,0,,30
2012-2-19,45,30,14,29,22,12,92,71,49,30.18,30.07,29.96,10,9,6,20,8,38,0.00,1,,152
2012-2-20,43,39,35,43,37,26,100,82,64,29.94,29.70,29.58,10,7,1,25,14,31,0.10,8,Rain,154
2012-2-21,47,39,30,32,28,25,89,67,45,29.90,29.80,29.66,10,10,10,20,8,28,0.00,1,,261
2012-2-22,54,43,32,39,33,27,93,70,46,29.63,29.54,29.40,10,10,9,13,4,17,0.01,4,Rain,263
2012-2-23,48,40,32,39,32,26,92,79,65,29.88,29.57,29.26,10,9,2,40,16,47,T,7,Rain-Snow,331
2012-2-24,47,37,27,32,23,17,82,58,33,30.31,30.11,29.86,10,10,8,29,14,38,T,2,Rain-Snow,309
2012-2-25,42,29,15,25,17,10,80,61,41,30.35,30.13,29.69,10,10,10,28,13,36,0.00,0,,138
2012-2-26,54,42,30,25,22,18,69,49,28,30.32,29.95,29.69,10,10,10,23,12,30,0.00,0,,273
2012-2-27,42,31,19,20,15,10,73,54,34,30.58,30.44,30.28,10,10,10,18,9,24,0.00,2,,59
2012-2-28,56,46,36,54,42,21,93,73,52,30.27,29.73,29.33,10,7,2,37,14,49,0.32,7,Rain-Thunderstorm,159
2012-2-29,44,34,23,29,24,21,88,69,49,29.91,29.73,29.50,10,10,10,38,19,48,0.00,2,,287